Location: Unspecified
(0.0000°N, 0.0000°E)
Time: 06:51:13
(UTC+00:00)

Kosmos-648 - Pass Details

Date: 04 July 2022
Orbit: 1437 x 1489 km, 74.0° (Epoch: 16 August)

Event Time Altitude Azimuth Distance (km) Brightness Sun altitude
Rises 19:11:25 0° 15° (NNE) 4,601 ? -15.4°
Reaches altitude 10° 19:15:10 10° 29° (NNE) 3,624 ? -16.2°
Maximum altitude 19:21:42 23° 78° (ENE) 2,739 ? -17.7°
Enters shadow 19:23:18 22° 93° (E) 2,801 ? -18.1°
